This demonstration page uses our WeatherBlox Daily Observations layout. Learn more.

Left ArrowRight Arrow

Hourly Observations for December 17, 2019

Temp ( °F °C ) Dew Point ( °F °C ) Humidity (%) Winds ( mph kmh ) Pressure ( in mb ) Visibility ( mi km ) Precip ( " mm )
12:29 am 00:29 Cloudy with Mist and Fog 20 -6.7 19 -7.2 96 96 WNW 3 6 30.34 1028 1 1 0.00 0.00
12:52 am 00:52 Mostly Cloudy with Freezing Fog 20 -6.7 20 -6.7 100 100 Calm 30.29 1026 1 1 0.00 0.00
1:07 am 01:07 Cloudy with Mist and Fog 21 -6.1 19 -7.2 92 92 W 6 9 30.34 1027 1 2 0.00 0.00
1:52 am 01:52 Cloudy with Mist and Fog 21 -6.1 20 -6.7 96 96 Calm 30.29 1026 1 2 0.00 0.00
2:52 am 02:52 Cloudy with Mist and Fog 22 -5.6 20 -6.7 92 92 W 6 9 30.30 1026 1 2 0.00 0.00
3:03 am 03:03 Cloudy with Mist and Fog 22 -5.6 21 -6.1 96 96 Calm 30.35 1028 2 3 0.00 0.00
3:49 am 03:49 Cloudy with Mist and Fog 21 -6 19 -7 93 93 WSW 7 11 30.34 1027 3 5 0.00 0.00
3:52 am 03:52 Cloudy with Mist and Fog 21 -6.1 20 -6.7 96 96 SW 7 11 30.30 1026 3 5 0.00 0.00
4:52 am 04:52 Cloudy with Mist and Fog 20 -6.7 18 -7.8 92 92 SSW 6 9 30.29 1026 4 6 0.00 0.00
5:09 am 05:09 Cloudy with Mist and Fog 19 -7.2 17 -8.3 92 92 WSW 5 7 30.32 1027 4 6 0.00 0.00
5:30 am 05:30 Partly Cloudy with Mist and Fog 18 -7.8 15 -9.4 88 88 WSW 5 7 30.34 1027 4 6 0.00 0.00
5:52 am 05:52 Mostly Clear with Mist and Fog 18 -7.8 15 -9.4 88 88 WSW 5 7 30.29 1026 5 8 0.00 0.00
6:52 am 06:52 Mostly Clear 17 -8.3 15 -9.4 92 92 WSW 3 6 30.30 1026 7 11 0.00 0.00
7:52 am 07:52 Sunny 17 -8.3 13 -10.6 84 84 Calm 30.30 1026 8 13 0.00 0.00
8:52 am 08:52 Sunny 18 -7.8 15 -9.4 88 88 Calm 30.30 1026 8 13 0.00 0.00
9:52 am 09:52 Mostly Sunny 22 -5.6 18 -7.8 85 85 Calm 30.31 1027 10 16 0.00 0.00
10:52 am 10:52 Mostly Sunny 29 -1.7 19 -7.2 66 66 Calm 30.30 1026 10 16 0.00 0.00
11:52 am 11:52 Partly Cloudy 32 0 21 -6.1 64 64 W 5 7 30.27 1025 10 16 0.00 0.00
12:52 pm 12:52 Partly Cloudy 36 2.2 21 -6.1 55 55 WSW 9 15 30.24 1024 10 16 0.00 0.00
1:52 pm 13:52 Mostly Sunny 38 3.3 21 -6.1 51 51 W 7 11 30.21 1023 10 16 0.00 0.00
2:52 pm 14:52 Partly Cloudy 39 3.9 23 -5 53 53 WSW 10 17 30.20 1023 10 16 0.00 0.00
3:52 pm 15:52 Mostly Sunny 38 3.3 24 -4.4 57 57 SW 8 13 30.20 1023 10 16 0.00 0.00
4:52 pm 16:52 Mostly Sunny 36 2.2 24 -4.4 62 62 SSW 6 9 30.21 1023 10 16 0.00 0.00
5:52 pm 17:52 Clear 35 1.7 22 -5.6 59 59 W 12 19 30.23 1024 10 16 0.00 0.00
6:52 pm 18:52 Clear 33 0.6 21 -6.1 61 61 WNW 10 17 30.25 1024 10 16 0.00 0.00
7:52 pm 19:52 Clear 31 -0.6 20 -6.7 64 64 WNW 12 19 30.26 1025 10 16 0.00 0.00
8:52 pm 20:52 Clear 29 -1.7 20 -6.7 69 69 NW 10 17 30.28 1025 10 16 0.00 0.00
9:52 pm 21:52 Clear 25 -3.9 19 -7.2 78 78 N 7 11 30.29 1026 10 16 0.00 0.00
10:52 pm 22:52 Clear 21 -6.1 18 -7.8 88 88 N 6 9 30.31 1026 10 16 0.00 0.00
11:52 pm 23:52 Clear 21 -6.1 18 -7.8 88 88 N 6 9 30.30 1026 10 16 0.00 0.00

Powered by AerisWeather